Location: Poughquag
(41.6090°N, 73.6820°W)
Time: 09:14:22
(UTC-05:00)

DIWATA 2B (PO-101) - Pass Details

Date: 18 November 2025
Orbit: 563 x 574 km, 98.1° (Epoch: 07 December)

Event Time Altitude Azimuth Distance (km) Brightness Sun altitude
Exits shadow 18:36:02 12° 357° (N) 1,716 ? -23.1°
Maximum altitude 18:39:28 43° 288° (WNW) 806 ? -23.7°
Drops below altitude 10° 18:43:15 10° 217° (SW) 1,853 ? -24.4°
Sets 18:45:27 0° 210° (SSW) 2,746 ? -24.8°
